Weather History for Pine Ridge, SD

Change the Weather History Date:

Wednesday, March 26, 2014

  Actual Average Record
Temperature  
Mean Temperature 55 °F 40 °F  
Max Temperature 75 °F 54 °F 84 °F (2012)
Min Temperature 34 °F 26 °F 10 °F (2002)
Degree Days  
Heating Degree Days 10 25  
Month to date heating degree days 795 765  
Since 1 July heating degree days 6277 6115  
Cooling Degree Days 0 0  
Month to date cooling degree days 0 0  
Year to date cooling degree days 0 0  
Growing Degree Days 4 (Base 50)    
Moisture  
Dew Point 25 °F    
Average Humidity 41    
Maximum Humidity 70    
Minimum Humidity 12    
Precipitation  
Precipitation T in 0.04 in 0.27 in (2006)
Month to date precipitation 0.25 0.68  
Year to date precipitation 0.52 1.47  
Sea Level Pressure  
Sea Level Pressure 29.42 in    
Wind  
Wind Speed 13 mph (WSW)    
Max Wind Speed 31 mph    
Max Gust Speed 38 mph    
Visibility 10 miles    
Events Rain    
T = Trace of Precipitation, MM = Missing Value Source: NWS Daily Summary

Daily Weather History Graph

Daily Weather History Graph

Search for Another Location

Airport:

Trip Planner

Search our weather history database for the weather conditions in past years. The results will help you decide how hot, cold, wet, or windy it might be!

Date:

Astronomy

Mar. 26, 2014 Rise Set
Actual Time 6:42 AM MDT 7:09 PM MDT
Civil Twilight 6:14 AM MDT 7:37 PM MDT
Nautical Twilight 5:40 AM MDT 8:11 PM MDT
Astronomical Twilight 5:06 AM MDT 8:46 PM MDT
Moon 3:59 AM MDT (3/26) 2:44 PM MDT (3/26)
Length of Visible Light 13h 23m
Length of Day
12h 26m
Waning Crescent, 21% of the Moon is Illuminated
Mar 26
Waning Crescent
Mar 30
New
Apr 7
First Quarter
Apr 15
Full
Apr 22
Last Quarter

Hourly Weather History & Observations

Time (MDT) Temp. Windchill Dew Point Humidity Pressure Visibility Wind Dir Wind Speed Gust Speed Precip Events Conditions
12:52 AM 41.0 °F 31.1 °F 25.0 °F 53% 29.68 in 10.0 mi South 23.0 mph 33.4 mph N/A   Clear
1:52 AM 41.0 °F 30.2 °F 24.1 °F 51% 29.63 in 10.0 mi South 27.6 mph 38.0 mph N/A   Clear
2:52 AM 37.9 °F 30.0 °F 24.1 °F 57% 29.61 in 10.0 mi SSW 12.7 mph 21.9 mph N/A   Clear
3:52 AM 36.0 °F 25.0 °F 24.1 °F 62% 29.56 in 10.0 mi South 20.7 mph 27.6 mph N/A   Clear
4:52 AM 34.0 °F 28.0 °F 24.1 °F 67% 29.55 in 10.0 mi SW 6.9 mph - N/A   Clear
5:52 AM 35.1 °F 29.3 °F 24.1 °F 64% 29.53 in 10.0 mi South 6.9 mph - N/A   Clear
6:52 AM 36.0 °F 30.3 °F 24.1 °F 62% 29.52 in 10.0 mi SSW 6.9 mph - N/A   Clear
7:52 AM 37.9 °F 32.7 °F 25.0 °F 60% 29.51 in 10.0 mi SSW 6.9 mph - N/A   Clear
8:52 AM 46.0 °F 41.0 °F 26.1 °F 46% 29.47 in 10.0 mi SSW 10.4 mph - N/A   Clear
9:52 AM 53.1 °F - 27.0 °F 37% 29.44 in 10.0 mi SSW 11.5 mph - N/A   Clear
10:52 AM 62.1 °F - 27.0 °F 26% 29.39 in 10.0 mi SSW 11.5 mph - N/A   Clear
11:52 AM 71.1 °F - 24.1 °F 17% 29.35 in 10.0 mi WSW 17.3 mph 21.9 mph N/A   Clear
12:52 PM 73.0 °F - 18.0 °F 12% 29.31 in 10.0 mi West 15.0 mph 24.2 mph N/A   Clear
1:52 PM 73.0 °F - 19.0 °F 13% 29.29 in 10.0 mi WSW 13.8 mph - N/A   Clear
2:52 PM 73.0 °F - 21.0 °F 14% 29.26 in 10.0 mi West 15.0 mph - N/A   Clear
3:52 PM 71.1 °F - 21.9 °F 16% 29.27 in 10.0 mi WSW 18.4 mph 26.5 mph N/A   Clear
4:20 PM 71.1 °F - 19.9 °F 14% 29.29 in 10.0 mi West 15.0 mph 25.3 mph N/A   Partly Cloudy
4:52 PM 70.0 °F - 19.9 °F 15% 29.26 in 10.0 mi WNW 15.0 mph - N/A   Clear
5:24 PM 61.0 °F - 30.0 °F 31% 29.29 in 10.0 mi North 20.7 mph 28.8 mph N/A   Clear
5:52 PM 55.0 °F - 28.0 °F 35% 29.30 in 10.0 mi NNE 21.9 mph 29.9 mph N/A   Partly Cloudy
6:52 PM 50.0 °F - 28.0 °F 43% 29.36 in 10.0 mi North 11.5 mph - N/A   Mostly Cloudy
7:52 PM 46.9 °F - 28.9 °F 50% 29.44 in 10.0 mi NNE 9.2 mph - N/A   Overcast
8:52 PM 45.0 °F 40.6 °F 28.9 °F 53% 29.43 in 10.0 mi North 8.1 mph - N/A   Mostly Cloudy
9:52 PM 39.9 °F 30.0 °F 28.0 °F 63% 29.41 in 10.0 mi North 21.9 mph 35.7 mph 0.00 in Rain Light Rain
10:52 PM 39.0 °F 35.7 °F 26.1 °F 60% 29.43 in 10.0 mi Variable 4.6 mph - 0.00 in   Overcast
11:52 PM 36.0 °F 27.5 °F 26.1 °F 67% 29.44 in 10.0 mi North 12.7 mph 23.0 mph 0.00 in   Overcast